Location: Cointrin
(46.2167°N, 6.1167°E)
Time: 16:40:52
(UTC+00:00)

Daily predictions for brighter satellites

Satellite Brightness Start Highest point End
(mag) Time Altitude Azimuth Time Altitude Azimuth Time Altitude Azimuth
Cosmos 2333 Rocket 2.5 17:11:44 10° S 17:17:07 47° ESE 17:22:33 10° NE
In-Cosmos 22 Rocket 4.3 17:14:13 10° S 17:19:57 64° E 17:25:42 10° NNE
SL-08 RB Rocket 4.4 17:19:16 10° S 17:23:51 62° W 17:28:30 10° NNW
SL-16 R/B 3.1 17:19:50 10° SW 17:25:22 52° WNW 17:30:56 10° NNE
CZ-4C R/B 3.8 17:25:34 10° NNE 17:28:57 34° E 17:32:11 10° SSE
COSMOS 2428 3.7 17:27:18 10° SSE 17:31:56 26° ESE 17:36:33 10° NE
Cosmos 2333 4.3 17:27:54 10° S 17:33:24 61° ESE 17:39:00 10° NNE
Lacrosse 5 2.7 17:28:33 10° W 17:33:27 45° NNW 17:38:22 10° NE
Cosmos 1633 2.2 17:31:48 10° S 17:35:07 76° E 17:38:28 10° NNE
IRIDIUM 114 4.5 17:32:37 10° N 17:37:43 51° E 17:42:47 10° SSE
SL-4 R/B 1.8 17:35:53 10° WNW 17:39:20 56° NNE 17:42:44 12° E
ADEOS 4.5 17:39:22 10° S 17:44:28 54° W 17:49:36 10° NNW
IRIDIUM 103 4.3 17:41:44 10° N 17:46:56 61° E 17:52:05 10° SSE
Atlas Centaur 2 4.5 17:41:13 10° SW 17:46:56 24° S 17:53:12 10° SE
CZ-4 R/B 4.4 17:46:05 10° SSE 17:50:12 84° ENE 17:54:21 10° NNW
Cosmos 1386 Rocket 4.5 17:44:21 10° N 17:50:18 56° ENE 17:56:15 10° SSE
Okean O Rocket 2.6 17:49:24 10° ESE 17:53:04 26° ENE 17:56:46 10° N
Cosmos 2322 3.9 17:48:09 10° S 17:53:39 52° ESE 17:59:11 10° NE
Cosmos 1825 3.3 17:51:01 10° SSW 17:54:35 46° WNW 17:58:09 10° N
CZ-4 R/B 2.3 17:52:25 10° SE 17:55:54 28° ENE 17:59:19 10° N
SKYMED 2 3.6 17:52:11 10° NNE 17:56:33 86° WNW 18:00:54 10° SSW
YAOGAN 1 2.8 17:53:45 10° SE 17:57:53 47° ENE 18:02:03 10° N
Cosmos 1745 Rocket 4.0 17:52:24 10° N 17:58:35 61° ENE 18:04:39 10° SSE
RESURS DK-1 4.3 17:57:27 10° NW 18:01:09 32° WSW 18:04:49 10° S
Okean 1-7 Rocket 3.9 17:58:21 10° SSE 18:02:31 42° E 18:06:45 10° NNE
Cosmos 2058 Rocket 3.2 17:59:24 10° N 18:03:49 81° W 18:08:16 10° S
IRIDIUM 106 4.3 17:59:58 10° N 18:05:14 88° E 18:10:27 10° S
Cosmos 1844 Rocket 4.4 18:00:49 10° NW 18:05:51 36° WSW 18:10:52 10° S
Cosmos 2058 4.0 18:04:26 10° SE 18:07:41 22° E 18:07:41 22° E
PAYLOAD B 4.1 18:02:48 10° SSE 18:08:18 78° ENE 18:13:49 10° NNW
Cosmos-2242 3.6 18:08:08 10° N 18:11:59 32° ENE 18:15:38 11° SE
Cosmos 1340 3.4 18:08:40 10° NNW 18:12:16 54° W 18:15:51 10° S
Cosmos 44 Rocket 3.6 18:09:00 10° SW 18:13:40 66° NW 18:18:21 11° NNE
USA 215 3.4 18:08:32 10° SE 18:15:04 76° SW 18:21:39 10° NW
Cosmos 1869 4.4 18:12:22 10° NNW 18:16:09 46° W 18:19:57 10° SSW
Cosmos 1709 Rocket 4.0 18:10:21 10° N 18:16:21 53° ENE 18:22:17 10° SSE
PSLV R/B 3.6 18:16:47 10° SSE 18:20:28 89° WSW 18:24:14 10° NNW
Cosmos 1553 Rocket 4.4 18:15:26 10° SSW 18:21:29 66° W 18:27:41 10° N
Feng Yun 1-1 Rocket 4.4 18:17:10 10° SE 18:22:26 49° ENE 18:27:38 10° N
Spot 1 4.2 18:25:36 25° NE 18:27:32 42° E 18:31:26 10° S
CZ-4B R/B 3.1 18:23:38 10° SSE 18:29:01 82° ENE 18:34:33 10° NNW
Cosmos 2219 Rocket 2.5 18:26:19 10° SW 18:31:52 68° WNW 18:37:29 10° NNE
DMSP B5D1-3 4.4 18:28:41 10° NNE 18:33:49 71° ESE 18:38:55 10° S
ATLAS 5 CENTAUR R/B 3.9 18:31:42 10° N 18:34:14 14° NNE 18:34:47 14° NNE
Landsat 7 4.5 18:35:09 33° ENE 18:35:09 33° ENE 18:39:07 10° N
Cosmos 883 Rocket 4.4 18:28:40 10° S 18:34:54 69° E 18:41:13 10° NNE
Cosmos 2360 Rocket 3.8 18:30:28 10° WSW 18:35:33 33° NW 18:40:40 10° NNE
BlueWalker 3 1.9 18:32:57 10° NW 18:36:51 68° NNE 18:37:33 53° E
Cosmos 1602 Rocket 3.4 18:32:40 10° S 18:36:56 64° E 18:41:13 10° NNE
Cosmos 1814 Rocket 4.3 18:34:54 10° NNW 18:40:16 72° WSW 18:45:34 10° SSE
Cosmos 1606 3.2 18:37:20 10° NNW 18:41:07 59° W 18:44:52 10° S
SJ-6B 3.6 18:44:58 36° NNE 18:44:58 36° NNE 18:47:44 10° N
Lacrosse 5 rocket 4.1 18:43:55 10° W 18:45:33 13° SW 18:47:13 10° SSW
Cosmos 2237 Rocket 2.5 18:41:21 10° S 18:46:36 40° ESE 18:46:55 40° E
IGS 5A 3.3 18:46:58 49° SE 18:47:54 66° ENE 18:52:00 10° N
Cosmos 2278 Rocket 2.1 18:45:48 10° NNW 18:51:29 69° ENE 18:53:56 35° SE
Cosmos 1758 Rocket 3.4 18:47:27 10° S 18:51:47 79° E 18:56:11 10° NNE
Cosmos 2322 Rocket 4.5 18:47:49 10° W 18:51:52 20° NW 18:55:58 10° N
NOSS 0 Rocket 3.9 18:46:44 10° SSW 18:52:52 63° ESE 18:56:15 28° NE
Cosmos 1356 Rocket 3.1 18:49:25 10° S 18:53:23 81° E 18:53:49 69° NNE
Cosmos 1812 Rocket 3.5 18:48:59 10° N 18:53:29 87° WSW 18:57:53 10° S
Cosmos 1980 3.8 18:52:10 10° S 18:57:36 52° ESE 18:58:04 50° E
BREEZE-M DEB (TANK) 3.7 18:56:06 10° W 19:00:03 67° SSW 19:04:18 31° ESE
CSL-04 Debris 4.0 18:58:39 39° SE 19:00:37 66° ENE 19:05:59 10° N
Cosmos 2333 Rocket 3.8 18:56:33 10° WSW 19:01:34 32° NW 19:06:40 10° NNE
CSL-04 Rocket 3.6 19:01:24 53° ESE 19:02:18 61° ENE 19:07:40 10° N
Cosmos 2369 Rocket 4.2 18:59:56 10° N 19:01:37 14° NNE 19:01:37 14° NNE
Cosmos 1943 Rocket 3.0 19:02:37 10° NNW 19:06:56 35° NNE 19:06:56 35° NNE
Resurs 01 Rocket 4.2 19:17:09 11° N 19:17:09 11° N 19:17:15 10° N
Cosmos 968 Rocket 4.2 19:10:40 10° SW 19:15:45 52° WNW 19:20:14 14° NNE
COSMOS 2428 3.4 19:10:19 10° SW 19:15:50 52° WNW 19:20:22 15° NNE
Lacrosse 5 3.4 19:13:17 10° WNW 19:17:29 25° N 19:18:14 24° N
SL-4 R/B 3.3 19:15:14 10° WNW 19:18:04 32° SW 19:18:04 32° SW
Cosmos 2208 Rocket 4.2 19:14:20 10° NNW 19:19:29 68° WSW 19:21:18 40° S
Meteor 2-2 Rocket 4.3 19:21:49 10° NNW 19:27:30 74° W 19:30:32 29° S
Okean O Rocket 3.2 19:25:14 10° SSW 19:29:15 35° W 19:33:20 10° NNW
CZ-4 R/B 3.4 19:27:13 10° SSW 19:30:44 27° W 19:34:12 10° NW
Lacrosse 4 Rocket 3.7 19:27:33 10° NNW 19:28:37 16° N 19:28:37 16° N
ATLAS 5 CENTAUR R/B 4.3 20:15:01 10° NNW 20:16:09 17° NNW 20:16:09 17° NNW
Cosmos 2237 Rocket 3.9 20:25:28 10° WSW 20:28:51 29° W 20:28:51 29° W
Cosmos 2278 Rocket 4.4 20:31:02 10° NW 20:34:58 20° W 20:35:51 19° WSW
Cosmos 1943 Rocket 4.4 20:46:26 10° NW 20:48:29 21° NW 20:48:29 21° NW
